Regional Weather Roundup
Issued by NWS

Home | Current Version | Previous Version | Graphics & Text | Print | Product List | Glossary On
Versions: 1 2 3 4 5 6 7 8 9 10 11 12 13 14 15 16 17 18 19 20 21 22 23 24 25 26 27 28 29 30 31 32 33 34 35 36 37 38 39 40 41 42 43 44 45 46 47 48 49 50
000
ASUS43 KMPX 280301
RWRMN
WEATHER ROUNDUP FOR MINNESOTA
NATIONAL WEATHER SERVICE TWIN CITIES/CHANHASSEN MN
1000 PM CDT SUN JUL 27 2014


NOTE: "FAIR" INDICATES FEW OR NO CLOUDS BELOW 12,000 FEET WITH NO
SIGNIFICANT WEATHER AND/OR OBSTRUCTIONS TO VISIBILITY. N/A MEANS
CURRENT SKY AND/OR WEATHER CONDITIONS ARE NOT AVAILABLE.

MNZ060>063-068>070-280400-
   Twin Cities Metro

CITY           SKY/WX    TMP DP  RH WIND       PRES   REMARKS
TWIN CITIES    MOCLDY    67  57  70 NE10G18   30.10R
ST PAUL        CLOUDY    66  57  72 NE6       30.11R
CRYSTAL        CLEAR     66  57  72 N12       30.10R
BLAINE         PTCLDY    64  61  88 N6        30.11R
LAKEVILLE      PTCLDY    63  57  82 NE3       30.11R
EDEN PRAIRIE   MOCLDY    66  59  78 N6        30.09R
SOUTH ST PAUL  MOCLDY    66  55  69 NE5       30.10R
LAKE ELMO      MOCLDY    63  55  77 NE3       30.11R
$$
MNZ001>005-007-008-013>017-022>024-027-028-280400-
   Northwest Minnesota

CITY           SKY/WX    TMP DP  RH WIND       PRES   REMARKS
BEMIDJI        CLOUDY    61  56  83 NW6       30.17R
HALLOCK        MOCLDY    63  57  82 NW3       30.20R
ROSEAU         PTCLDY    61  54  77 NW6       30.18S
WARROAD        PTCLDY    61  55  82 W5        30.18R
THIEF RVR FALL CLOUDY    63  57  82 NW7       30.20R
CROOKSTON      CLOUDY    63  57  82 N5        30.20S
FOSSTON        CLOUDY    61  55  82 NW7       30.20R
DETROIT LAKES  CLOUDY    61  59  94 NW8       30.20R
MOORHEAD       PTCLDY    61  61 100 N5        30.20R
PARK RAPIDS    CLOUDY    62  59  90 N8        30.17R
$$
MNZ006-009>011-018-025>026-280400-
   North Central Minnesota

CITY           SKY/WX    TMP DP  RH WIND       PRES   REMARKS
BAUDETTE       CLOUDY    61  53  75 NW5       30.16R
FLAG ISLAND    CLEAR     68  54  60 N7        30.15R
INTL FALLS     PTCLDY    59  53  80 N5        30.13R
WASKISH        MOCLDY    64  54  68 CALM      30.16R
BIG FORK       CLEAR     57  54  88 NW1       30.15R
LONGVILLE      CLOUDY    63  57  82 CALM      30.15R
GRAND RAPIDS   MOCLDY    57  54  88 CALM      30.14R
CRANE LAKE     CLEAR     54  52  94 CALM      30.13S
ORR            MOCLDY    55  52  88 CALM      30.11R
COOK           CLEAR     55  54  94 CALM      30.13R
$$
MNZ012-019>021-037-280400-
   Northeast Minnesota

CITY           SKY/WX    TMP DP  RH WIND       PRES   REMARKS
DULUTH         PTCLDY    57  55  93 W5        30.10R
ELY            CLEAR     59  52  77 CALM      30.11R
HIBBING        CLEAR     56  52  86 CALM      30.12R
EVELETH        CLEAR     59  50  72 NW7       30.12R
DULUTH HARBOR  CLEAR     63  59  88 W10       30.09R
TWO HARBORS    CLEAR     57  52  82 NW3       30.07R
SILVER BAY     CLEAR     55  55 100 CALM      30.07R
GRAND MARAIS     N/A     50  47  89 CALM      30.07R
G MARAIS ARPRT   N/A     55  48  76 N5        30.11R
$$
MNZ029>031-032-039>041-046>048-054>057-064-280400-
   West Central Minnesota

CITY           SKY/WX    TMP DP  RH WIND       PRES   REMARKS
FERGUS FALLS   CLOUDY    63  55  77 N8        30.18R
WHEATON        CLOUDY    61  55  82 NW8       30.20R
MORRIS         PTCLDY    61  57  88 NW10      30.17R
ALEXANDRIA     CLOUDY    63  59  87 N10       30.17R
ELBOW LAKE     MOCLDY    62  58  87 N14       30.17R
WADENA         CLOUDY    61  57  88 CALM      30.17R
GLENWOOD       MOCLDY    64  59  82 N13       30.16R
APPLETON       CLEAR     63  55  77 NW7       30.17R
BENSON         MOCLDY    63  57  82 N13       30.16R
ORTONVILLE     CLOUDY    63  55  77 N7        30.18R
MADISON        CLOUDY    66  57  72 N13       30.18R
WILLMAR        FAIR      64  61  88 NW8       30.16R
$$
MNZ033>034-036-042>043-049>051-058-059-280400-
   Central Minnesota

CITY           SKY/WX    TMP DP  RH WIND       PRES   REMARKS
ST CLOUD       CLOUDY    66  57  72 NE5       30.13R
SAUK CENTRE    CLOUDY    62  60  93 NW6       30.15R
PAYNESVILLE    CLOUDY    62  58  88 W6        30.14R
AITKIN         CLOUDY    64  55  72 N5        30.12R
PINE RIVER     CLOUDY    63  57  82 NW5       30.18R
BRAINERD       CLOUDY    64  56  75 N7        30.14R
STAPLES        CLOUDY    63  55  77 N5        30.16R
LONG PRAIRIE   CLOUDY    61  59  94 NW3       30.16R
LITTLE FALLS   CLOUDY    63  54  72 CALM      30.14R
LITCHFIELD     DRIZZLE   64  64 100 N3        30.14R
BUFFALO        PTCLDY    64  57  77 N6        30.13R
MAPLE LAKE     MOCLDY    64  59  83 NE6       30.14R
$$
MNZ037-044-045-052-053-280400-
   East Central Minnesota

CITY           SKY/WX    TMP DP  RH WIND       PRES   REMARKS
PRINCETON        N/A     64  57  77 CALM      30.13R
MORA           CLOUDY    59  54  82 CALM      30.14R
CAMBRIDGE      MOCLDY    64  54  68 CALM      30.10R
RUSH CITY      CLOUDY    62  55  79 CALM      30.11R
MOOSE LAKE     PTCLDY    57  55  94 NW3       30.10R
HINCKLEY       CLOUDY    61  57  88 CALM      30.11S
CLOQUET        CLEAR     57  55  94 W6        30.11R
MCGREGOR       CLOUDY    61  59  94 CALM      30.13R
$$
MNZ071>073-080-081-089-090-097-098-280400-
   Southwest Minnesota

CITY           SKY/WX    TMP DP  RH WIND       PRES   REMARKS
MONTEVIDEO     PTCLDY    63  55  77 N8        30.18R
GRANITE FALLS  MOCLDY    62  57  85 NW9       30.18R
CANBY          CLOUDY    63  55  76 NW8       30.19S
MARSHALL       CLEAR     61  54  77 NW10      30.16R
REDWOOD FALLS  MOCLDY    66  57  72 NW12      30.13R
OLIVIA         MOCLDY    64  57  77 NW8       30.13R
PIPESTONE      PTCLDY    63  55  77 N8G16     30.20R
WINDOM         CLEAR     63  55  77 NW14      30.15R
WORTHINGTON    CLEAR     61  55  82 NW10      30.18R
JACKSON        CLEAR     63  55  77 NW10      30.15R
TRACY          CLEAR     61  57  87 CALM      30.18R
SLAYTON        PTCLDY    61  55  82 NW9G16    30.19R
$$
MNZ065>067-074>077-082>085-091>093-280400-
   South Central Minnesota

CITY           SKY/WX    TMP DP  RH WIND       PRES   REMARKS
MANKATO        CLOUDY    64  57  77 NW8       30.10R
NEW ULM        CLOUDY    66  63  88 N8        30.12R
ST JAMES       CLOUDY    68  59  73 NW12G20   30.13R
FAIRMONT       MOCLDY    66  55  68 NW12G17   30.11R
GLENCOE        PTCLDY    65  61  87 NW5       30.11R
FARIBAULT      CLOUDY    70  54  56 N9        30.10R
OWATONNA       PTCLDY    66  57  72 N8        30.09R
WASECA         PTCLDY    61  55  82 NW5       30.11R
ALBERT LEA     CLEAR     64  59  82 NW7       30.09R
$$
MNZ078>079-086>088-094>096-280400-
   Southeast Minnesota

CITY           SKY/WX    TMP DP  RH WIND       PRES   REMARKS
ROCHESTER      PTCLDY    63  58  83 N10       30.08R
RED WING       CLOUDY    63  55  77 N3        30.08R
STANTON        CLEAR     65  56  73 NE8       30.09R
DODGE CENTER   PTCLDY    64  59  82 N12       30.09R
WINONA         PTCLDY    63  54  72 N5        30.06R
AUSTIN         MOCLDY    64  61  88 N7        30.07R
PRESTON        CLEAR     63  61  94 N9        30.06R
$$
ABBREVIATIONS USED IN REMARKS
   TC - TEMPERATURES IN CELSIUS
  WCI - WIND CHILL INDEX
   HX - HEAT INDEX
  VSB - VISIBILITY
$$



USA.gov is the U.S. government's official web portal to all federal, state and local government web resources and services.